User: anonymous   Login
Location: Meetinghouse Hill
(42.7686°N, 71.7752°W)
Time: 21:38:58
(UTC-05:00)
Language:

Iridium 34 - Orbit

View from above orbital plane
View from above orbital plane
View from above satellite
View from above satellite

Ground track
Ground track

The orbit data is extracted from the following two-line orbital elements,

1 24969U 97056E   14327.48648168  .00000271  00000-0  89626-4 0   366
2 24969 086.3957 350.3398 0002192 108.0550 252.0885 14.34214448898273
Epoch (UTC): 23 November 2014 11:40:32
Eccentricity: 0.0002192
inclination: 86.3957°
perigee height: 776 km
apogee height: 779 km
right ascension of ascending node: 350.3398°
argument of perigee: 108.0550°
revolutions per day: 14.34214448
mean anomaly at epoch: 252.0885°
orbit number at epoch: 89827

The dashed part of the orbit path shows where the satellite is in the earth's shadow,  

DLR